Вернуться в каталог

ICEYE-X64

АктивенНаукаSSO
NORAD 67373·PAYLOAD·🇫🇮 Finland

Запущен Jan 11, 2026 с Vandenberg Space Force Base

Loading…

Ближайшие Пролёты (ближайшие 24 часа)

TLE

СвежийSource: Space-Track

Эпоха: Sep 14, 2026, 10:12 UTC

1 67373U 26004L   26257.42523481  .00000613  00000-0  72541-4 0  9992
2 67373  97.8080 254.5996 0005486 188.3266 171.7861 14.88071902 36568

Отслеживайте ICEYE-X64 в реальном времени с AllMySat

Download on the App Store